• In Hungary
  • List of Countries
  • For 7 days
  • Water Temperature
  • Satellite Maps
  • Weather Map
  • News
  • Weather Widgets
  • user-avatar
    Login

    Hourly Weather Kaczkowko

    Today, 18 October, Thursday

    Time Temperature Precipitation Wind Pressure Humidity
    00:00 +14°C° 0 mm 2 mps 756 mmHg 64%
    01:00 +13°C° 0 mm 2 mps 756 mmHg 65%
    02:00 +13°C° 0 mm 1 mps 755 mmHg 66%
    03:00 +13°C° 0 mm 1 mps 755 mmHg 68%
    04:00 +12°C° 0 mm 1 mps 755 mmHg 70%
    05:00 +12°C° 0 mm 1 mps 755 mmHg 71%
    06:00 +12°C° 0 mm 1 mps 755 mmHg 73%
    07:00 +12°C° 0 mm 1 mps 755 mmHg 74%
    08:00 +14°C° 0 mm 1 mps 755 mmHg 68%
    09:00 +15°C° 0 mm 1 mps 755 mmHg 62%
    10:00 +18°C° 0 mm 1 mps 755 mmHg 57%
    11:00 +19°C° 0 mm 1 mps 755 mmHg 54%
    12:00 +20°C° 0 mm 1 mps 755 mmHg 51%
    13:00 +21°C° 0 mm 1 mps 755 mmHg 48%
    14:00 +21°C° 0 mm 1 mps 755 mmHg 50%
    15:00 +20°C° 0 mm 1 mps 755 mmHg 53%
    16:00 +20°C° 0 mm 1 mps 754 mmHg 55%
    17:00 +17°C° 0 mm 2 mps 755 mmHg 59%
    18:00 +16°C° 0 mm 2 mps 755 mmHg 63%
    19:00 +15°C° 0 mm 2 mps 755 mmHg 66%
    20:00 +14°C° 0 mm 2 mps 755 mmHg 70%
    21:00 +14°C° 0 mm 2 mps 756 mmHg 73%
    22:00 +13°C° 0 mm 2 mps 756 mmHg 76%
    23:00 +13°C° 0 mm 2 mps 756 mmHg 79%

    Tomorrow, 19 October, Friday

    Time Temperature Precipitation Wind Pressure Humidity
    00:00 +12°C° 0 mm 2 mps 756 mmHg 83%
    01:00 +12°C° 0 mm 2 mps 756 mmHg 87%
    02:00 +12°C° 0 mm 2 mps 756 mmHg 89%
    03:00 +10°C° 0 mm 2 mps 756 mmHg 91%
    04:00 +10°C° 0 mm 2 mps 756 mmHg 94%
    05:00 +10°C° 0 mm 2 mps 757 mmHg 94%
    06:00 +10°C° 0 mm 2 mps 757 mmHg 94%
    07:00 +10°C° 0 mm 2 mps 757 mmHg 95%
    08:00 +12°C° 0 mm 2 mps 758 mmHg 89%
    09:00 +13°C° 0 mm 2 mps 758 mmHg 83%
    10:00 +15°C° 0 mm 2 mps 758 mmHg 77%
    11:00 +15°C° 0 mm 2 mps 758 mmHg 74%
    12:00 +15°C° 0 mm 2 mps 758 mmHg 70%
    13:00 +16°C° 0 mm 2 mps 758 mmHg 67%
    14:00 +16°C° 0 mm 2 mps 758 mmHg 67%
    15:00 +15°C° 0 mm 2 mps 759 mmHg 67%
    16:00 +15°C° 0 mm 1 mps 759 mmHg 66%
    17:00 +14°C° 0 mm 1 mps 759 mmHg 68%
    18:00 +14°C° 0 mm 1 mps 759 mmHg 69%
    19:00 +13°C° 0 mm 2 mps 760 mmHg 71%
    20:00 +12°C° 0 mm 1 mps 760 mmHg 73%
    21:00 +11°C° 0 mm 1 mps 760 mmHg 76%
    22:00 +11°C° 0 mm 1 mps 760 mmHg 78%
    23:00 +10°C° 0 mm 1 mps 760 mmHg 80%

    Day after tomorrow, 20 October, Saturday

    Time Temperature Precipitation Wind Pressure Humidity
    00:00 +10°C° 0 mm 1 mps 760 mmHg 82%
    01:00 +9°C° 0 mm 1 mps 761 mmHg 84%
    02:00 +8°C° 0 mm 2 mps 761 mmHg 86%
    03:00 +7°C° 0 mm 2 mps 761 mmHg 88%
    04:00 +7°C° 0 mm 2 mps 761 mmHg 90%
    05:00 +7°C° 0 mm 2 mps 761 mmHg 91%
    06:00 +6°C° 0 mm 2 mps 761 mmHg 92%
    07:00 +6°C° 0 mm 2 mps 762 mmHg 93%
    08:00 +8°C° 0 mm 2 mps 762 mmHg 85%
    09:00 +10°C° 0 mm 3 mps 762 mmHg 78%
    10:00 +11°C° 0 mm 3 mps 763 mmHg 71%
    11:00 +12°C° 0 mm 3 mps 763 mmHg 67%
    12:00 +12°C° 0 mm 3 mps 763 mmHg 64%
    13:00 +13°C° 0 mm 4 mps 763 mmHg 60%
    14:00 +13°C° 0 mm 4 mps 763 mmHg 61%
    15:00 +12°C° 0 mm 3 mps 763 mmHg 61%
    16:00 +12°C° 0 mm 3 mps 763 mmHg 61%
    17:00 +11°C° 0 mm 3 mps 763 mmHg 65%
    18:00 +10°C° 0 mm 3 mps 763 mmHg 69%
    19:00 +9°C° 0 mm 3 mps 763 mmHg 73%
    20:00 +9°C° 0 mm 3 mps 763 mmHg 76%
    21:00 +8°C° 0 mm 3 mps 763 mmHg 79%
    22:00 +8°C° 0 mm 2 mps 763 mmHg 82%
    23:00 +8°C° 0 mm 3 mps 763 mmHg 84%

    21 October, Sunday

    Time Temperature Precipitation Wind Pressure Humidity
    00:00 +8°C° 0 mm 3 mps 763 mmHg 85%
    01:00 +8°C° 0 mm 3 mps 763 mmHg 86%
    02:00 +8°C° 0 mm 3 mps 763 mmHg 87%
    03:00 +8°C° 0 mm 3 mps 763 mmHg 88%
    04:00 +8°C° 0 mm 3 mps 763 mmHg 89%
    05:00 +8°C° 0 mm 3 mps 763 mmHg 90%
    06:00 +7°C° 0 mm 3 mps 763 mmHg 91%
    07:00 +7°C° 0 mm 3 mps 763 mmHg 92%
    08:00 +8°C° 0 mm 3 mps 763 mmHg 87%
    09:00 +10°C° 0 mm 3 mps 763 mmHg 82%
    10:00 +11°C° 0 mm 3 mps 763 mmHg 77%
    11:00 +12°C° 0 mm 3 mps 763 mmHg 72%
    12:00 +13°C° 0 mm 3 mps 763 mmHg 68%
    13:00 +14°C° 0 mm 3 mps 763 mmHg 64%
    14:00 +14°C° 0 mm 2 mps 762 mmHg 65%
    15:00 +14°C° 0 mm 2 mps 762 mmHg 67%
    16:00 +14°C° 0 mm 2 mps 762 mmHg 68%
    17:00 +13°C° 0 mm 2 mps 762 mmHg 72%
    18:00 +12°C° 0 mm 2 mps 761 mmHg 75%
    19:00 +10°C° 0 mm 2 mps 761 mmHg 78%
    20:00 +10°C° 0 mm 2 mps 761 mmHg 81%
    21:00 +9°C° 0 mm 2 mps 761 mmHg 83%
    22:00 +9°C° 0 mm 2 mps 761 mmHg 85%
    23:00 +8°C° 0 mm 2 mps 761 mmHg 85%

    22 October, Monday

    Time Temperature Precipitation Wind Pressure Humidity
    00:00 +8°C° 0 mm 2 mps 760 mmHg 86%
    01:00 +8°C° 0 mm 2 mps 760 mmHg 86%
    02:00 +8°C° 0 mm 2 mps 760 mmHg 86%
    03:00 +7°C° 0 mm 2 mps 760 mmHg 85%
    04:00 +7°C° 0 mm 3 mps 759 mmHg 85%
    05:00 +8°C° 0 mm 3 mps 759 mmHg 81%
    06:00 +8°C° 0 mm 3 mps 759 mmHg 78%
    07:00 +8°C° 0 mm 3 mps 759 mmHg 74%
    08:00 +9°C° 0 mm 3 mps 759 mmHg 72%
    09:00 +9°C° 0 mm 3 mps 759 mmHg 70%
    10:00 +9°C° 0 mm 3 mps 760 mmHg 68%
    11:00 +10°C° 0.1 mm 3 mps 760 mmHg 69%
    12:00 +10°C° 0.1 mm 3 mps 760 mmHg 69%
    13:00 +10°C° 0.1 mm 3 mps 760 mmHg 70%
    14:00 +11°C° 0 mm 3 mps 760 mmHg 70%
    15:00 +11°C° 0 mm 3 mps 760 mmHg 69%
    16:00 +11°C° 0 mm 3 mps 760 mmHg 68%
    17:00 +10°C° 0 mm 3 mps 760 mmHg 71%
    18:00 +9°C° 0 mm 3 mps 760 mmHg 73%
    19:00 +8°C° 0 mm 3 mps 760 mmHg 75%
    20:00 +8°C° 0 mm 3 mps 760 mmHg 76%
    21:00 +7°C° 0 mm 3 mps 760 mmHg 77%
    22:00 +5°C° 0 mm 3 mps 759 mmHg 78%
    23:00 +5°C° 0 mm 3 mps 759 mmHg 78%

    23 October, Tuesday

    Time Temperature Precipitation Wind Pressure Humidity
    00:00 +5°C° 0 mm 3 mps 758 mmHg 77%
    01:00 +5°C° 0 mm 3 mps 758 mmHg 77%
    02:00 +5°C° 0 mm 4 mps 757 mmHg 75%
    03:00 +6°C° 0 mm 4 mps 756 mmHg 74%
    04:00 +6°C° 0 mm 4 mps 755 mmHg 72%
    05:00 +6°C° 0 mm 4 mps 754 mmHg 73%
    06:00 +6°C° 0 mm 4 mps 753 mmHg 73%
    07:00 +5°C° 0 mm 5 mps 752 mmHg 74%
    08:00 +6°C° 0.3 mm 5 mps 752 mmHg 74%
    09:00 +5°C° 0.3 mm 6 mps 751 mmHg 75%
    10:00 +5°C° 0.3 mm 6 mps 751 mmHg 75%
    11:00 +5°C° 0.3 mm 6 mps 750 mmHg 77%
    12:00 +5°C° 0.3 mm 6 mps 750 mmHg 78%
    13:00 +5°C° 0.3 mm 6 mps 749 mmHg 80%
    14:00 +7°C° 0.1 mm 5 mps 749 mmHg 79%
    15:00 +7°C° 0.1 mm 4 mps 749 mmHg 78%
    16:00 +7°C° 0.1 mm 4 mps 749 mmHg 78%
    17:00 +6°C° 0.1 mm 4 mps 749 mmHg 77%
    18:00 +6°C° 0.1 mm 4 mps 749 mmHg 76%
    19:00 +6°C° 0.1 mm 4 mps 750 mmHg 75%
    20:00 +5°C° 0 mm 4 mps 750 mmHg 76%
    21:00 +4°C° 0 mm 3 mps 750 mmHg 78%
    22:00 +4°C° 0 mm 3 mps 751 mmHg 79%
    23:00 +3°C° 0 mm 3 mps 751 mmHg 80%
    Show more